S-NET B (43187 NORAD) Tracking and Keplerian Element Data

This shows tracking and keplerian element data for the satellite.

Feedback or suggestion? Click here.




ElementValue
Catalog43187
NameS-NET B
Epoch Orbit14839
Epoch Day294.45614988
Epoch Year2020
RAAN200.1755
Inclination97.6845
Eccentricity0.0011203
Argument of Perigee158.9159
Mean Anonmoly201.2527
Mean Motion14.96866916
Decay Rate-2.68E-06
L11 43187U 18014H 20294.45614988 -.00000268 00000-0 -18341-4 0 9998
L22 43187 97.6845 200.1755 0011203 158.9159 201.2527 14.96866916148399

Live tracking and technical data element details for S-NET B (NORAD 43187). S-NET B can be tracked NOW for your location showing map with azimuth and elevation plus other details from your city location.

Track the satellite on the map from your city or location and see movement details for azimuth, elevation, latitude, longitude, range, height, and movement on the map or in text.







IsCatalogInMostPopularTable: catalog: 43187, numindb: 439
Update: records affected: 1



GetName: 43187 S-NET B

Hit Count: updated at: Thu, 22 Oct 2020 03:11:54 GMT